Location: Niagara
(43.2500°N, 79.0670°W)
Time: 23:43:27
(UTC-04:00)

OTV 5 (USA 277) - Pass Details

Date: 09 October 2017
Orbit: 404 x 417 km, 43.0° (Epoch: 07 September)

Event Time Altitude Azimuth Distance (km) Brightness Sun altitude
Rises 20:33:20 0° 234° (SW) 2,346 ? -20.9°
Reaches altitude 10° 20:35:32 10° 225° (SW) 1,485 ? -21.3°
Enters shadow 20:37:20 25° 204° (SSW) 874 ? -21.6°
